CST,Max TemperatureF,Mean TemperatureF,Min TemperatureF,Max Dew PointF,MeanDew PointF,Min DewpointF,Max Humidity, Mean Humidity, Min Humidity, Max Sea Level PressureIn, Mean Sea Level PressureIn, Min Sea Level PressureIn, Max VisibilityMiles, Mean VisibilityMiles, Min VisibilityMiles, Max Wind SpeedMPH, Mean Wind SpeedMPH, Max Gust SpeedMPH,PrecipitationIn, CloudCover, Events, WindDirDegrees
2014-1-1,57,49,41,54,49,41,100,93,86,30.32,30.17,30.06,10,7,3,10,4,12,0.13,8,Rain,69
2014-1-2,59,46,33,55,47,24,100,78,55,30.32,30.04,29.92,10,7,1,28,13,36,0.91,7,Rain,350
2014-1-3,43,34,25,23,17,12,75,52,29,30.44,30.37,30.31,10,10,10,22,11,26,0.00,2,,18
2014-1-4,58,43,28,45,35,19,86,72,57,30.30,30.19,30.06,10,10,10,14,8,16,0.00,3,,89
2014-1-5,67,55,42,61,48,39,93,80,67,30.06,29.98,29.88,10,10,8,23,9,33,0.02,7,Rain,102
2014-1-6,42,32,21,33,12,0,89,59,29,30.58,30.40,30.09,10,10,10,30,16,40,0.00,6,,332
2014-1-7,35,25,14,9,5,0,73,49,24,30.66,30.58,30.51,10,10,9,15,7,23,0.00,2,,352
2014-1-8,47,33,19,20,13,9,67,44,21,30.55,30.46,30.37,10,10,10,13,5,16,0.00,1,,68
2014-1-9,58,44,29,47,32,15,93,69,45,30.39,30.32,30.24,10,10,8,10,6,12,0.00,4,,54
2014-1-10,66,57,47,66,55,46,100,92,84,30.23,30.06,29.93,10,4,0,17,6,25,0.11,8,Fog-Rain,112
2014-1-11,73,57,40,67,54,27,100,63,25,30.11,29.92,29.83,10,8,2,28,11,43,0.57,5,Rain-Thunderstorm,248
2014-1-12,65,49,33,44,34,28,96,61,26,30.24,30.16,30.10,10,10,9,15,5,19,0.00,0,,167
2014-1-13,58,53,47,58,55,44,100,93,86,30.11,29.97,29.87,10,5,2,20,9,25,0.57,7,Rain-Thunderstorm,158
2014-1-14,63,53,43,57,41,31,100,65,30,30.11,30.04,29.91,10,10,8,13,6,21,0.00,1,,300
2014-1-15,52,42,32,40,27,11,89,55,20,30.21,30.13,30.05,10,10,10,24,10,28,0.00,1,,317
2014-1-16,53,38,23,37,25,14,92,59,26,30.24,30.15,30.09,10,10,10,15,6,19,0.00,0,,221
2014-1-17,59,46,33,44,27,11,92,56,20,30.25,30.16,30.09,10,10,10,20,8,31,0.00,3,,276
2014-1-18,55,38,21,35,21,9,81,50,19,30.33,30.22,30.12,10,10,10,16,6,22,0.00,0,,222
2014-1-19,63,50,36,47,39,30,100,65,30,30.24,30.15,30.08,10,9,2,20,6,24,0.10,2,Rain-Thunderstorm,276
2014-1-20,65,48,31,49,40,32,100,68,36,30.14,30.07,29.97,10,7,0,13,5,16,0.00,3,Fog,221
2014-1-21,58,45,31,55,35,15,100,61,22,30.19,30.02,29.92,10,8,2,26,13,38,0.00,3,,301
2014-1-22,50,37,24,30,19,9,82,52,21,30.26,30.21,30.17,10,10,10,13,4,19,0.00,0,,336
2014-1-23,54,41,28,31,22,15,100,63,26,30.56,30.39,30.23,10,10,10,23,9,29,0.00,5,,18
2014-1-24,36,33,29,22,12,7,63,50,36,30.60,30.51,30.33,10,9,7,21,9,26,T,8,Rain-Snow,12
2014-1-25,59,45,31,39,32,23,96,68,40,30.31,30.16,30.02,10,10,6,16,6,22,0.00,4,,247
2014-1-26,59,46,33,51,38,31,100,71,41,30.08,29.99,29.91,10,10,7,13,4,16,0.00,4,,212
2014-1-27,64,54,43,59,50,16,100,69,37,30.10,29.96,29.90,10,7,3,24,9,29,0.06,7,Rain,358
2014-1-28,43,33,23,27,18,6,92,63,33,30.31,30.20,30.08,10,7,2,24,16,29,0.45,8,Rain-Snow,358
2014-1-29,31,26,20,14,6,3,74,53,31,30.43,30.36,30.31,10,10,10,21,13,28,0.00,2,,1
2014-1-30,48,32,16,24,16,8,85,58,31,30.35,30.25,30.17,10,10,10,13,5,16,0.00,1,,67
2014-1-31,61,44,26,43,35,26,100,64,28,30.23,30.15,30.09,10,7,0,12,4,13,0.00,1,Fog,108